DM1MT Weather Reports


Display with metric or nautical units.
time (UTC)temp
F
wind
direction
speed
MPH
gust
MPH
rain 1hr
in
rain 24hr
in
rain mn
in
humidity
%
barometer
mb
20260902181653 69 328 2.0 5.0 0.00 0.00 0.00 53 1020.3
20260902180652 69 358 2.0 8.0 0.00 0.00 0.00 53 1020.3
20260902175632 69 8 2.0 2.0 0.00 0.00 0.00 53 1020.1
20260902174542 70 315 1.0 5.0 0.00 0.00 0.00 52 1020.0
20260902173632 70 354 2.0 8.0 0.00 0.00 0.00 51 1020.1
20260902172632 71 349 3.0 5.0 0.00 0.00 0.00 50 1020.0
20260902171632 71 314 3.0 8.0 0.00 0.00 0.00 50 1020.2
20260902170632 72 320 3.0 10.0 0.00 0.00 0.00 49 1019.9
20260902165631 73 3 5.0 13.0 0.00 0.00 0.00 48 1019.9
20260902164632 74 311 4.0 10.0 0.00 0.00 0.00 49 1020.0
20260902163632 74 347 6.0 13.0 0.00 0.00 0.00 48 1020.0
20260902162632 75 320 2.0 8.0 0.00 0.00 0.00 47 1020.0
20260902161652 76 304 2.0 8.0 0.00 0.00 0.00 45 1020.0
20260902160632 77 308 5.0 13.0 0.00 0.00 0.00 44 1019.8
20260902155631 77 257 4.0 8.0 0.00 0.00 0.00 43 1019.8
20260902154632 78 302 6.0 23.0 0.00 0.00 0.00 39 1019.6
20260902153632 78 261 7.0 15.0 0.00 0.00 0.00 37 1019.7
20260902152631 78 272 6.0 15.0 0.00 0.00 0.00 37 1019.9
20260902151632 78 248 8.0 15.0 0.00 0.00 0.00 35 1019.9
20260902150631 78 297 7.0 13.0 0.00 0.00 0.00 38 1020.0
20260902145611 77 303 8.0 17.0 0.00 0.00 0.00 39 1019.9
20260902144611 77 244 5.0 13.0 0.00 0.00 0.00 40 1020.0
20260902143611 77 257 6.0 13.0 0.00 0.00 0.00 40 1019.9
20260902142652 76 250 4.0 10.0 0.00 0.00 0.00 41 1019.7
20260902141651 76 239 6.0 13.0 0.00 0.00 0.00 41 1019.9
20260902140631 76 245 9.0 20.0 0.00 0.00 0.00 42 1020.0
20260902135711 77 262 8.0 17.0 0.00 0.00 0.00 41 1020.0
20260902134631 77 242 6.0 13.0 0.00 0.00 0.00 42 1020.0
20260902133631 77 299 4.0 13.0 0.00 0.00 0.00 43 1019.8
20260902132632 77 265 7.0 15.0 0.00 0.00 0.00 43 1019.8
20260902131611 76 199 5.0 13.0 0.00 0.00 0.00 43 1020.0
20260902130631 76 236 6.0 13.0 0.00 0.00 0.00 46 1020.0
20260902125631 75 243 4.0 10.0 0.00 0.00 0.00 47 1020.0
20260902124632 76 242 4.0 8.0 0.00 0.00 0.00 47 1020.0
20260902123631 76 273 8.0 15.0 0.00 0.00 0.00 49 1020.1
20260902122711 77 228 5.0 10.0 0.00 0.00 0.00 48 1020.2
20260902121651 77 236 7.0 13.0 0.00 0.00 0.00 46 1020.2
20260902120631 76 255 6.0 15.0 0.00 0.00 0.00 46 1020.3
20260902115651 76 235 11.0 20.0 0.00 0.00 0.00 48 1020.5
20260902114631 75 225 7.0 15.0 0.00 0.00 0.00 48 1020.3
20260902113631 75 251 8.0 13.0 0.00 0.00 0.00 48 1020.3
20260902112631 75 235 6.0 13.0 0.00 0.00 0.00 49 1020.4
20260902111631 75 227 5.0 13.0 0.00 0.00 0.00 49 1020.4
20260902110631 75 260 6.0 13.0 0.00 0.00 0.00 48 1020.5
20260902105631 74 235 7.0 20.0 0.00 0.00 0.00 49 1020.7
20260902104631 74 183 2.0 8.0 0.00 0.00 0.00 55 1021.0
20260902103631 74 231 2.0 5.0 0.00 0.00 0.00 56 1021.1
20260902102631 73 214 1.0 5.0 0.00 0.00 0.00 54 1021.0
20260902101631 73 230 0.0 2.0 0.00 0.00 0.00 60 1021.0
20260902100631 73 177 3.0 8.0 0.00 0.00 0.00 61 1021.2
20260902095611 73 284 2.0 8.0 0.00 0.00 0.00 60 1021.2
20260902094651 72 153 1.0 2.0 0.00 0.00 0.00 60 1021.1
20260902093611 71 156 1.0 2.0 0.00 0.00 0.00 61 1021.2
20260902092611 71 219 1.0 5.0 0.00 0.00 0.00 64 1021.3
20260902091611 71 224 1.0 5.0 0.00 0.00 0.00 62 1021.3
20260902090611 69 153 1.0 5.0 0.00 0.00 0.00 65 1021.3
20260902085611 68 52 0.0 2.0 0.00 0.00 0.00 66 1021.6
20260902084611 67 174 1.0 5.0 0.00 0.00 0.00 69 1021.4
20260902083611 66 131 1.0 5.0 0.00 0.00 0.00 72 1021.5
20260902082611 65 317 0.0 2.0 0.00 0.00 0.00 70 1021.4
20260902081611 64 218 0.0 5.0 0.00 0.00 0.00 73 1021.4
20260902080611 63 112 0.0 2.0 0.00 0.00 0.00 74 1021.2
20260902075611 63 190 1.0 2.0 0.00 0.00 0.00 77 1021.1
20260902074631 63 168 0.0 5.0 0.00 0.00 0.00 77 1021.0
20260902073631 62 0.0 0.0 0.00 0.00 0.00 76 1021.2
20260902072651 61 0.0 0.0 0.00 0.00 0.00 75 1021.0
20260902071631 59 0.0 0.0 0.00 0.00 0.00 79 1021.0
20260902070631 58 0.0 0.0 0.00 0.00 0.00 84 1021.0
20260902065711 57 0.0 0.0 0.00 0.00 0.00 86 1020.8
20260902064631 57 0.0 0.0 0.00 0.00 0.00 87 1020.9
20260902063554 56 0.0 0.0 0.00 0.00 0.00 88 1021.0
20260902062631 55 0.0 0.0 0.00 0.00 0.00 89 1021.0
20260902061631 55 0.0 0.0 0.00 0.00 0.00 90 1021.0
20260902060631 54 0.0 0.0 0.00 0.00 0.00 90 1020.8
20260902055631 54 0.0 2.0 0.00 0.00 0.00 90 1020.7
20260902054631 54 0.0 0.0 0.00 0.00 0.00 90 1020.9
20260902053630 54 0.0 0.0 0.00 0.00 0.00 90 1021.0
20260902052651 54 252 0.0 2.0 0.00 0.00 0.00 90 1021.0
20260902051631 54 0.0 0.0 0.00 0.00 0.00 90 1020.9
20260902050630 54 0.0 0.0 0.00 0.00 0.00 90 1020.8
20260902045630 54 0.0 0.0 0.00 0.00 0.00 90 1020.7
20260902044611 54 0.0 0.0 0.00 0.00 0.00 90 1020.5
20260902043611 53 0.0 0.0 0.00 0.00 0.00 90 1020.8
20260902042630 53 0.0 0.0 0.00 0.00 0.00 90 1020.9
20260902041630 53 0.0 0.0 0.00 0.00 0.00 90 1020.7
20260902040630 53 0.0 0.0 0.00 0.00 0.00 90 1020.9
20260902035650 53 0.0 0.0 0.00 0.00 0.00 90 1020.9
20260902034631 53 0.0 0.0 0.00 0.00 0.00 90 1020.9
20260902033710 53 0.0 0.0 0.00 0.00 0.00 90 1020.9
20260902032630 53 0.0 0.0 0.00 0.00 0.00 90 1020.8
20260902031630 53 0.0 0.0 0.00 0.00 0.00 90 1020.9
20260902030610 53 0.0 0.0 0.00 0.00 0.00 90 1021.0
20260902025630 53 0.0 0.0 0.00 0.00 0.00 90 1021.0
20260902024631 53 0.0 0.0 0.00 0.00 0.00 90 1021.0
20260902023630 53 0.0 0.0 0.00 0.00 0.00 89 1021.1
20260902022650 53 0.0 0.0 0.00 0.00 0.00 89 1021.0
20260902021630 54 0.0 0.0 0.00 0.00 0.00 89 1020.9
20260902020630 54 0.0 0.0 0.00 0.00 0.00 89 1021.0
20260902015650 54 0.0 0.0 0.00 0.00 0.00 89 1021.0
20260902014630 54 0.0 0.0 0.00 0.00 0.00 89 1021.0
20260902013630 55 0.0 0.0 0.00 0.00 0.00 89 1020.9
20260902012550 55 0.0 0.0 0.00 0.00 0.00 89 1020.9
20260902011610 55 0.0 0.0 0.00 0.00 0.00 88 1020.9
20260902010630 55 0.0 0.0 0.00 0.00 0.00 88 1021.0
20260902005650 56 0.0 0.0 0.00 0.00 0.00 88 1020.9
20260902004650 56 0.0 0.0 0.00 0.00 0.00 88 1021.0
20260902003610 56 0.0 0.0 0.00 0.00 0.00 88 1021.1
20260902002610 56 0.0 0.0 0.00 0.00 0.00 87 1021.1
20260902001630 56 0.0 0.0 0.00 0.00 0.00 87 1021.1
20260902000610 56 0.0 0.0 0.00 0.00 0.00 87 1021.4
20260901235610 56 0.0 0.0 0.00 0.00 0.00 87 1021.3
20260901234610 56 0.0 0.0 0.00 0.00 0.00 87 1021.4
20260901233610 56 0.0 0.0 0.00 0.00 0.00 87 1021.4
20260901232610 57 0.0 0.0 0.00 0.00 0.00 87 1021.3
20260901231610 57 0.0 0.0 0.00 0.00 0.00 86 1021.5
20260901230610 57 0.0 0.0 0.00 0.00 0.00 86 1021.2
20260901225610 57 0.0 0.0 0.00 0.00 0.00 86 1021.2
20260901224610 57 0.0 0.0 0.00 0.00 0.00 85 1021.3
20260901223610 58 0.0 0.0 0.00 0.00 0.00 85 1021.5
20260901222610 58 0.0 0.0 0.00 0.00 0.00 85 1021.2
20260901221610 59 0.0 0.0 0.00 0.00 0.00 85 1021.2
20260901220610 59 0.0 2.0 0.00 0.00 0.00 84 1021.0
20260901215610 59 0.0 0.0 0.00 0.00 0.00 84 1021.1
20260901214610 60 0.0 0.0 0.00 0.00 0.00 83 1021.0
20260901213610 61 0.0 0.0 0.00 0.00 0.00 82 1021.0
20260901212610 62 0.0 0.0 0.00 0.00 0.00 81 1021.0
20260901211610 63 0.0 0.0 0.00 0.00 0.00 80 1021.0
20260901210610 64 0.0 0.0 0.00 0.00 0.00 78 1021.1
20260901205610 64 0.0 0.0 0.00 0.00 0.00 75 1021.1
20260901204610 64 54 0.0 2.0 0.00 0.00 0.00 74 1021.1
20260901203610 64 7 1.0 5.0 0.00 0.00 0.00 74 1021.0
20260901202553 65 9 0.0 2.0 0.00 0.00 0.00 73 1021.1
20260901201630 65 348 1.0 5.0 0.00 0.00 0.00 73 1021.1
20260901200610 66 0.0 0.0 0.00 0.00 0.00 72 1021.1
20260901195610 66 334 0.0 2.0 0.00 0.00 0.00 71 1021.1
20260901194610 66 336 2.0 5.0 0.00 0.00 0.00 70 1021.1
20260901193610 66 337 2.0 5.0 0.00 0.00 0.00 70 1021.0
20260901192609 67 331 1.0 5.0 0.00 0.00 0.00 70 1021.0
20260901191609 67 356 1.0 5.0 0.00 0.00 0.00 68 1020.7
20260901190610 68 335 2.0 5.0 0.00 0.00 0.00 67 1020.8
20260901185610 68 354 2.0 5.0 0.00 0.00 0.00 65 1020.7
20260901184650 69 331 2.0 5.0 0.00 0.00 0.00 61 1020.5
20260901183629 70 345 2.0 8.0 0.00 0.00 0.00 60 1020.2
20260901182610 71 0.0 0.0 0.00 0.00 0.00 56 1020.0